Flag for Canada Weather past 2 weeks in Labrador City, Newfoundland and Labrador, Canada

Now
10 °F

Partly sunny.


Feels Like: -6 °F
Forecast: N/A
Wind: 15 mph from Northwest

Location: Wabush Lake

Current Time: Apr 1, 2015 at 6:45:05 PM

Latest Report: Apr 1, 2015 at 6:00 PM


Visibility: 15 mi

Pressure: 29.80 "Hg

Humidity: 61%

Dew point: 0 °F

Location of Labrador CityLocation

Historic Weather in Labrador City — Graph

°F

Labrador City temperature yesterday

Maximum temperature yesterday: 25 °F (at 10:00 AM)
Minimum temperature yesterday: 7 °F (at 10:00 PM)
Average temperature yesterday: 20 °F

Past Weeks' High & Low Weather Summary

 TemperatureHumidityPressure
High32 °F (Mar 29, 4:00 PM)100% (Mar 26, 10:00 PM)30.17 "Hg (Mar 26, 10:00 PM)
Low-15 °F (Mar 28, 4:00 AM)34% (Mar 28, 2:00 PM)29.30 "Hg (Mar 23, 1:00 AM)
Average14 °F72%29.74 "Hg
* Reported Mar 17 5:00 PM — Apr 1 5:00 PM, Labrador City, Weather by CustomWeather, © 2015

Note: Actual official high and low records may vary slightly from our data, if they occured in-between our weather recording intervals... More about our weather records

Advertising

Labrador City weather history for previous 24 hours

 ConditionsComfort  
Time TempWeatherWind HumidityBarometerVisibility
5:00 PM
Wed, Apr 1
10 °FPartly sunny.18 mph67%29.78 "Hg15 mi
4:00 PM10 °FPartly sunny.22 mph67%29.76 "Hg15 mi
3:00 PM10 °FLight snow. Partly sunny.20 mph61%29.75 "Hg15 mi
2:00 PM10 °FLight snow. Partly sunny.18 mph61%29.74 "Hg15 mi
1:00 PM9 °FLight snow. Overcast.16 mph66%29.74 "Hg15 mi
12:00 PM7 °FPartly sunny.12 mph66%29.75 "Hg15 mi
11:00 AM5 °FPassing clouds.13 mph66%29.75 "Hg15 mi
10:00 AM1 °FScattered clouds.10 mph71%29.75 "Hg15 mi
9:00 AM-2 °FPassing clouds.9 mph71%29.75 "Hg15 mi
8:51 AM-2 °FPassing clouds.9 mph71%29.74 "Hg15 mi
8:00 AM-4 °FLight snow. Passing clouds.12 mph77%29.74 "Hg15 mi
7:00 AM-2 °FPartly cloudy.14 mph77%29.72 "Hg12 mi
6:00 AM-2 °FPartly cloudy.12 mph77%29.71 "Hg15 mi
5:00 AM0 °FMostly cloudy.12 mph78%29.69 "Hg9 mi
4:51 AM0 °FMostly cloudy.10 mph78%29.68 "Hg9 mi
4:00 AM1 °FClear.13 mph78%29.67 "Hg9 mi
3:00 AM3 °FPassing clouds.15 mph78%29.67 "Hg9 mi
2:47 AM5 °FPassing clouds.16 mph78%29.67 "Hg9 mi
2:00 AM7 °FLight snow. Overcast.12 mph78%29.66 "Hg9 mi
1:59 AM7 °FLight snow. Overcast.10 mph78%29.66 "Hg9 mi
1:00 AM7 °FLight snow. Overcast.8 mph78%29.66 "Hg6 mi
12:53 AM7 °FLight snow. Overcast.8 mph78%29.66 "Hg6 mi
12:00 AM5 °FLight snow. Overcast.12 mph85%29.66 "Hg9 mi
11:00 PM
Tue, Mar 31
7 °FOvercast.14 mph78%29.66 "Hg9 mi
10:00 PM7 °FLight snow. Passing clouds.10 mph78%29.65 "Hg10 mi
9:00 PM9 °FLight snow. Mostly cloudy.13 mph78%29.64 "Hg10 mi
8:00 PM12 °FLight snow. Mostly cloudy.15 mph73%29.60 "Hg6 mi
7:00 PM16 °FLight snow. Overcast.13 mph73%29.58 "Hg15 mi
6:00 PM18 °FLight snow. Broken clouds.12 mph73%29.54 "Hg12 mi
Weather by CustomWeather, © 2015

See weather overviewHow to use our weather pages